| time (UTC) | temp F | wind direction | speed knots | gust knots | rain 1hr in | rain 24hr in | rain mn in | humidity % | barometer mb |
| 20260504201919 | 72 | 345 | 2.6 | 8.7 | 0.00 | 0.00 | 0.00 | 47 | 1010.3 |
| 20260504201419 | 72 | 345 | 2.6 | 8.7 | 0.00 | 0.00 | 0.00 | 48 | 1010.3 |
| 20260504200917 | 72 | 243 | 3.5 | 10.4 | 0.00 | 0.00 | 0.00 | 47 | 1010.4 |
| 20260504200411 | 72 | 345 | 3.5 | 10.4 | 0.00 | 0.00 | 0.00 | 45 | 1010.4 |
| 20260504195905 | 72 | 345 | 2.6 | 7.0 | 0.00 | 0.00 | 0.00 | 46 | 1010.4 |
| 20260504195355 | 71 | 345 | 2.6 | 8.7 | 0.00 | 0.00 | 0.00 | 49 | 1010.6 |
| 20260504194849 | 71 | 183 | 4.3 | 11.3 | 0.00 | 0.00 | 0.00 | 46 | 1010.6 |
| 20260504194349 | 71 | 195 | 4.3 | 11.3 | 0.00 | 0.00 | 0.00 | 44 | 1010.7 |
| 20260504193847 | 71 | 279 | 3.5 | 8.7 | 0.00 | 0.00 | 0.00 | 46 | 1010.8 |
| 20260504193346 | 71 | 238 | 3.5 | 8.7 | 0.00 | 0.00 | 0.00 | 46 | 1010.8 |
| 20260504192844 | 71 | 190 | 3.5 | 8.7 | 0.00 | 0.00 | 0.00 | 45 | 1011.1 |
| 20260504192346 | 71 | 202 | 4.3 | 13.9 | 0.00 | 0.00 | 0.00 | 48 | 1011.2 |
| 20260504191846 | 71 | 163 | 4.3 | 13.9 | 0.00 | 0.00 | 0.00 | 46 | 1011.1 |
| 20260504191344 | 71 | 233 | 3.5 | 12.2 | 0.00 | 0.00 | 0.00 | 47 | 1011.3 |
| 20260504190347 | 71 | 327 | 3.5 | 8.7 | 0.00 | 0.00 | 0.00 | 47 | 1011.5 |
| 20260504185844 | 71 | 259 | 2.6 | 7.8 | 0.00 | 0.00 | 0.00 | 50 | 1011.5 |
| 20260504185347 | 71 | 333 | 2.6 | 8.7 | 0.00 | 0.00 | 0.00 | 48 | 1011.6 |
| 20260504184849 | 70 | 181 | 4.3 | 12.2 | 0.00 | 0.00 | 0.00 | 45 | 1011.7 |
| 20260504184347 | 70 | 175 | 4.3 | 12.2 | 0.00 | 0.00 | 0.00 | 47 | 1011.7 |
| 20260504183848 | 70 | 345 | 5.2 | 11.3 | 0.00 | 0.00 | 0.00 | 45 | 1011.8 |
| 20260504183340 | 70 | 345 | 4.3 | 11.3 | 0.00 | 0.00 | 0.00 | 46 | 1011.8 |
| 20260504181830 | 70 | 222 | 4.3 | 12.2 | 0.00 | 0.00 | 0.00 | 49 | 1012.0 |
| 20260504181331 | 70 | 131 | 5.2 | 12.2 | 0.00 | 0.00 | 0.00 | 51 | 1012.0 |
| 20260504180831 | 70 | 262 | 4.3 | 10.4 | 0.00 | 0.00 | 0.00 | 47 | 1012.0 |
| 20260504180333 | 70 | 345 | 4.3 | 10.4 | 0.00 | 0.00 | 0.00 | 44 | 1012.0 |
| 20260504175839 | 69 | 345 | 4.3 | 16.5 | 0.00 | 0.00 | 0.00 | 46 | 1012.2 |
| 20260504175338 | 70 | 188 | 4.3 | 16.5 | 0.00 | 0.00 | 0.00 | 46 | 1012.0 |
| 20260504174836 | 69 | 345 | 3.5 | 12.2 | 0.00 | 0.00 | 0.00 | 46 | 1012.0 |
| 20260504174338 | 70 | 114 | 3.5 | 12.2 | 0.00 | 0.00 | 0.00 | 46 | 1012.2 |
| 20260504173330 | 70 | 258 | 3.5 | 9.6 | 0.00 | 0.00 | 0.00 | 45 | 1012.4 |
| 20260504172331 | 69 | 181 | 3.5 | 8.7 | 0.00 | 0.00 | 0.00 | 45 | 1012.4 |
| 20260504171329 | 69 | 230 | 3.5 | 8.7 | 0.00 | 0.00 | 0.00 | 50 | 1012.7 |
| 20260504170830 | 69 | 345 | 4.3 | 12.2 | 0.00 | 0.00 | 0.00 | 49 | 1012.7 |
| 20260504160321 | 67 | 301 | 2.6 | 9.6 | 0.00 | 0.00 | 0.00 | 47 | 1013.5 |
| 20260504150819 | 65 | 158 | 2.6 | 7.8 | 0.00 | 0.00 | 0.00 | 47 | 1014.0 |
| 20260504150319 | 65 | 96 | 2.6 | 7.0 | 0.00 | 0.00 | 0.00 | 49 | 1014.0 |
| 20260504141314 | 62 | 262 | 2.6 | 7.8 | 0.00 | 0.00 | 0.00 | 55 | 1014.4 |
| 20260504140813 | 62 | 215 | 2.6 | 7.8 | 0.00 | 0.00 | 0.00 | 52 | 1014.3 |
| 20260504140314 | 62 | 203 | 2.6 | 7.8 | 0.00 | 0.00 | 0.00 | 53 | 1014.3 |
| 20260504130812 | 54 | 345 | 2.6 | 7.8 | 0.00 | 0.00 | 0.00 | 65 | 1014.6 |
| 20260504120314 | 48 | 133 | 1.7 | 3.5 | 0.00 | 0.00 | 0.00 | 72 | 1014.9 |
| 20260504100505 | 46 | 106 | 0.0 | 1.7 | 0.00 | 0.00 | 0.00 | 66 | 1015.0 |
| 20260504081928 | 46 | 252 | 0.9 | 5.2 | 0.00 | 0.00 | 0.00 | 61 | 1015.3 |
| 20260504081428 | 46 | 269 | 1.7 | 5.2 | 0.00 | 0.00 | 0.00 | 62 | 1015.2 |
| 20260504080927 | 46 | 246 | 1.7 | 5.2 | 0.00 | 0.00 | 0.00 | 62 | 1015.3 |
| 20260504080423 | 46 | 264 | 1.7 | 6.1 | 0.00 | 0.00 | 0.00 | 63 | 1015.2 |
| 20260504050410 | 45 | 292 | 0.0 | 0.0 | 0.00 | 0.00 | 0.00 | 63 | 1015.5 |
| 20260504045911 | 46 | 293 | 0.0 | 0.0 | 0.00 | 0.00 | 0.00 | 62 | 1015.6 |
| 20260504045407 | 46 | 293 | 0.0 | 0.0 | 0.00 | 0.00 | 0.00 | 62 | 1015.6 |
| 20260504044907 | 46 | 287 | 0.0 | 0.0 | 0.00 | 0.00 | 0.00 | 62 | 1015.6 |
| 20260504044408 | 46 | 290 | 0.0 | 0.9 | 0.00 | 0.00 | 0.00 | 62 | 1015.6 |
| 20260504043901 | 46 | 290 | 0.0 | 1.7 | 0.00 | 0.00 | 0.00 | 61 | 1015.5 |
| 20260504043357 | 46 | 290 | 0.0 | 1.7 | 0.00 | 0.00 | 0.00 | 61 | 1015.5 |
| 20260504042849 | 46 | 289 | 0.0 | 0.9 | 0.00 | 0.00 | 0.00 | 61 | 1015.5 |
| 20260504041844 | 47 | 289 | 0.0 | 1.7 | 0.00 | 0.00 | 0.00 | 60 | 1015.5 |
| 20260504041343 | 47 | 289 | 0.0 | 1.7 | 0.00 | 0.00 | 0.00 | 60 | 1015.6 |
| 20260504040841 | 47 | 290 | 0.0 | 1.7 | 0.00 | 0.00 | 0.00 | 60 | 1015.5 |
| 20260504040343 | 47 | 232 | 0.0 | 0.0 | 0.00 | 0.00 | 0.00 | 61 | 1015.4 |
| 20260504035838 | 47 | 232 | 0.0 | 0.0 | 0.00 | 0.00 | 0.00 | 61 | 1015.3 |
| 20260504035340 | 47 | 233 | 0.0 | 0.0 | 0.00 | 0.00 | 0.00 | 60 | 1015.3 |
| 20260504034840 | 47 | 233 | 0.0 | 0.0 | 0.00 | 0.00 | 0.00 | 60 | 1015.2 |
| 20260504034340 | 47 | 233 | 0.0 | 0.0 | 0.00 | 0.00 | 0.00 | 60 | 1015.2 |
| 20260504033839 | 47 | 233 | 0.0 | 0.0 | 0.00 | 0.00 | 0.00 | 60 | 1015.2 |
| 20260504033339 | 47 | 231 | 0.0 | 0.0 | 0.00 | 0.00 | 0.00 | 60 | 1015.2 |
| 20260504032840 | 47 | 231 | 0.0 | 0.0 | 0.00 | 0.00 | 0.00 | 61 | 1015.1 |
| 20260504032341 | 47 | 231 | 0.0 | 0.0 | 0.00 | 0.00 | 0.00 | 60 | 1015.2 |
| 20260504031840 | 47 | 231 | 0.0 | 0.0 | 0.00 | 0.00 | 0.00 | 60 | 1015.1 |
| 20260504031341 | 47 | 231 | 0.0 | 0.0 | 0.00 | 0.00 | 0.00 | 60 | 1015.1 |
| 20260504030844 | 47 | 231 | 0.0 | 0.0 | 0.00 | 0.00 | 0.00 | 60 | 1015.1 |
| 20260504030344 | 47 | 231 | 0.0 | 0.0 | 0.00 | 0.00 | 0.00 | 61 | 1015.0 |
| 20260504025844 | 47 | 231 | 0.0 | 0.0 | 0.00 | 0.00 | 0.00 | 61 | 1015.1 |
| 20260504025344 | 47 | 231 | 0.0 | 0.0 | 0.00 | 0.00 | 0.00 | 60 | 1015.1 |
| 20260504024842 | 47 | 231 | 0.0 | 0.0 | 0.00 | 0.00 | 0.00 | 60 | 1015.1 |
| 20260504023345 | 46 | 298 | 0.0 | 0.0 | 0.00 | 0.00 | 0.00 | 62 | 1015.0 |
| 20260504022843 | 46 | 298 | 0.0 | 0.0 | 0.00 | 0.00 | 0.00 | 61 | 1014.9 |
| 20260504022342 | 46 | 298 | 0.0 | 0.0 | 0.00 | 0.00 | 0.00 | 64 | 1014.9 |
| 20260504020342 | 47 | 298 | 0.0 | 0.0 | 0.00 | 0.00 | 0.00 | 60 | 1015.0 |
| 20260504015840 | 47 | 298 | 0.0 | 0.0 | 0.00 | 0.00 | 0.00 | 60 | 1015.0 |
| 20260504014839 | 47 | 298 | 0.0 | 0.0 | 0.00 | 0.00 | 0.00 | 61 | 1014.9 |
| 20260504014339 | 47 | 298 | 0.0 | 0.0 | 0.00 | 0.00 | 0.00 | 61 | 1014.9 |
| 20260504013840 | 47 | 298 | 0.0 | 0.0 | 0.00 | 0.00 | 0.00 | 60 | 1014.9 |
| 20260504013338 | 47 | 298 | 0.0 | 0.0 | 0.00 | 0.00 | 0.00 | 61 | 1014.9 |
| 20260504012832 | 47 | 298 | 0.0 | 0.0 | 0.00 | 0.00 | 0.00 | 62 | 1014.8 |
| 20260504012331 | 47 | 298 | 0.0 | 0.0 | 0.00 | 0.00 | 0.00 | 61 | 1014.7 |
| 20260504011829 | 47 | 298 | 0.0 | 0.0 | 0.00 | 0.00 | 0.00 | 63 | 1014.7 |
| 20260504011329 | 48 | 298 | 0.0 | 0.0 | 0.00 | 0.00 | 0.00 | 62 | 1014.6 |
| 20260504010827 | 48 | 298 | 0.0 | 0.0 | 0.00 | 0.00 | 0.00 | 59 | 1014.5 |
| 20260504005825 | 48 | 298 | 0.0 | 0.0 | 0.00 | 0.00 | 0.00 | 59 | 1014.6 |
| 20260504005323 | 49 | 298 | 0.0 | 0.0 | 0.00 | 0.00 | 0.00 | 62 | 1014.5 |
| 20260504004822 | 50 | 298 | 0.0 | 0.0 | 0.00 | 0.00 | 0.00 | 62 | 1014.5 |
| 20260504004322 | 50 | 298 | 0.0 | 0.0 | 0.00 | 0.00 | 0.00 | 56 | 1014.5 |
| 20260504003819 | 51 | 298 | 0.0 | 0.0 | 0.00 | 0.00 | 0.00 | 56 | 1014.4 |
| 20260504003319 | 51 | 284 | 0.0 | 0.0 | 0.00 | 0.00 | 0.00 | 54 | 1014.4 |
| 20260504002820 | 51 | 292 | 0.0 | 0.0 | 0.00 | 0.00 | 0.00 | 53 | 1014.3 |
| 20260504002318 | 52 | 294 | 0.0 | 0.0 | 0.00 | 0.00 | 0.00 | 51 | 1014.3 |
| 20260504001315 | 53 | 295 | 0.0 | 0.0 | 0.00 | 0.00 | 0.00 | 50 | 1014.2 |
| 20260504000817 | 53 | 296 | 0.0 | 0.9 | 0.00 | 0.00 | 0.00 | 50 | 1014.2 |
| 20260504000310 | 53 | 296 | 0.0 | 2.6 | 0.00 | 0.00 | 0.00 | 49 | 1014.2 |
| 20260503235811 | 53 | 296 | 0.9 | 2.6 | 0.00 | 0.00 | 0.00 | 50 | 1014.1 |
| 20260503235311 | 54 | 274 | 0.9 | 2.6 | 0.00 | 0.00 | 0.00 | 50 | 1014.1 |
| 20260503234812 | 54 | 334 | 1.7 | 4.3 | 0.00 | 0.00 | 0.00 | 50 | 1014.1 |
| 20260503234310 | 55 | 335 | 2.6 | 4.3 | 0.00 | 0.00 | 0.00 | 49 | 1013.9 |
| 20260503233806 | 55 | 21 | 1.7 | 3.5 | 0.00 | 0.00 | 0.00 | 49 | 1013.8 |
| 20260503233306 | 55 | 345 | 1.7 | 3.5 | 0.00 | 0.00 | 0.00 | 48 | 1013.8 |
| 20260503232804 | 55 | 345 | 2.6 | 7.0 | 0.00 | 0.00 | 0.00 | 48 | 1013.7 |
| 20260503232305 | 56 | 335 | 3.5 | 7.0 | 0.00 | 0.00 | 0.00 | 48 | 1013.7 |
| 20260503231801 | 56 | 329 | 2.6 | 5.2 | 0.00 | 0.00 | 0.00 | 47 | 1013.7 |
| 20260503231301 | 56 | 294 | 2.6 | 7.0 | 0.00 | 0.00 | 0.00 | 45 | 1013.7 |
| 20260503230800 | 56 | 283 | 2.6 | 7.0 | 0.00 | 0.00 | 0.00 | 45 | 1013.7 |
| 20260503230301 | 56 | 302 | 4.3 | 8.7 | 0.00 | 0.00 | 0.00 | 48 | 1013.7 |
| 20260503225802 | 56 | 306 | 5.2 | 8.7 | 0.00 | 0.00 | 0.00 | 47 | 1013.7 |
| 20260503224752 | 57 | 6 | 5.2 | 10.4 | 0.00 | 0.00 | 0.00 | 47 | 1013.8 |
| 20260503224249 | 57 | 336 | 5.2 | 10.4 | 0.00 | 0.00 | 0.00 | 47 | 1013.9 |
| 20260503223749 | 57 | 317 | 3.5 | 7.8 | 0.00 | 0.00 | 0.00 | 48 | 1013.8 |
| 20260503223249 | 57 | 287 | 3.5 | 7.8 | 0.00 | 0.00 | 0.00 | 45 | 1013.8 |
| 20260503222749 | 57 | 340 | 3.5 | 7.8 | 0.00 | 0.00 | 0.00 | 46 | 1013.7 |
| 20260503222251 | 57 | 296 | 2.6 | 7.8 | 0.00 | 0.00 | 0.00 | 44 | 1013.7 |
| 20260503221749 | 57 | 345 | 3.5 | 8.7 | 0.00 | 0.00 | 0.00 | 46 | 1013.7 |
| 20260503221246 | 57 | 259 | 6.1 | 12.2 | 0.00 | 0.00 | 0.00 | 44 | 1013.7 |
| 20260503220748 | 57 | 345 | 6.1 | 12.2 | 0.00 | 0.00 | 0.00 | 47 | 1013.7 |
| 20260503215745 | 57 | 340 | 7.8 | 12.2 | 0.00 | 0.00 | 0.00 | 45 | 1013.8 |
| 20260503215244 | 58 | 340 | 5.2 | 10.4 | 0.00 | 0.00 | 0.00 | 46 | 1013.8 |
| 20260503214749 | 58 | 340 | 5.2 | 9.6 | 0.00 | 0.00 | 0.00 | 45 | 1013.8 |
| 20260503214246 | 58 | 340 | 6.1 | 13.9 | 0.00 | 0.00 | 0.00 | 44 | 1013.7 |
| 20260503213743 | 58 | 340 | 6.1 | 13.9 | 0.00 | 0.00 | 0.00 | 43 | 1013.7 |
| 20260503213243 | 58 | 303 | 6.1 | 13.0 | 0.00 | 0.00 | 0.00 | 44 | 1013.6 |
| 20260503212745 | 58 | 340 | 6.1 | 13.0 | 0.00 | 0.00 | 0.00 | 43 | 1013.7 |
| 20260503212242 | 59 | 323 | 5.2 | 10.4 | 0.00 | 0.00 | 0.00 | 40 | 1013.7 |
| 20260503211739 | 59 | 2 | 4.3 | 10.4 | 0.00 | 0.00 | 0.00 | 45 | 1013.6 |
| 20260503211238 | 59 | 314 | 4.3 | 9.6 | 0.00 | 0.00 | 0.00 | 44 | 1013.7 |
| 20260503210737 | 59 | 287 | 6.1 | 13.9 | 0.00 | 0.00 | 0.00 | 42 | 1013.7 |
| 20260503205738 | 59 | 336 | 7.0 | 13.0 | 0.00 | 0.00 | 0.00 | 44 | 1013.7 |
| 20260503205237 | 59 | 345 | 5.2 | 10.4 | 0.00 | 0.00 | 0.00 | 43 | 1013.6 |
| 20260503204738 | 59 | 336 | 7.8 | 15.6 | 0.00 | 0.00 | 0.00 | 43 | 1013.6 |
| 20260503204238 | 58 | 336 | 9.6 | 15.6 | 0.00 | 0.00 | 0.00 | 42 | 1013.7 |
| 20260503203736 | 58 | 345 | 7.0 | 14.8 | 0.00 | 0.00 | 0.00 | 43 | 1013.6 |
| 20260503203236 | 58 | 345 | 5.2 | 8.7 | 0.00 | 0.00 | 0.00 | 41 | 1013.6 |
| 20260503202736 | 58 | 345 | 6.1 | 14.8 | 0.00 | 0.00 | 0.00 | 40 | 1013.7 |
| 20260503202237 | 59 | 308 | 9.6 | 17.4 | 0.00 | 0.00 | 0.00 | 45 | 1013.7 |